Location: Launois
(49.6535°N, 4.5395°E)
Time: 17:52:30
(UTC+00:00)

Cosmos 2181 Rocket - Pass Details

Date: 23 May 2024
Orbit: 952 x 1013 km, 82.9° (Epoch: 11 May)

Event Time Altitude Azimuth Distance (km) Brightness Sun altitude
Rises 01:52:12 0° 351° (N) 3,748 7.9 -13.7°
Reaches altitude 10° 01:54:47 10° 353° (N) 2,787 7.2 -13.5°
Maximum altitude 02:01:11 74° 79° (E) 1,037 4.3 -12.9°
Drops below altitude 10° 02:07:27 10° 164° (SSE) 2,727 6.0 -12.3°
Enters shadow 02:09:52 - 166° (SSE) 3,633 6.6 -12.1°
